Tracking 25612 objects as of 20-May-2022
HD Live streaming from Space Station
objects crossing your sky now

SATCOM 3 DEB

Track SATCOM 3 DEB now!


NORAD ID: 31138
Int'l Code: 1979-101H
Perigee: 7,919.9 km
Apogee: 35,792.7 km
Inclination: 7.2 °
Period: 786.6 minutes
Semi major axis: 28227 km
RCS: 0.0839 m2 (small)
Launch date: December 7, 1979
Source: United States (US)
Launch site: AIR FORCE EASTERN TEST RANGE (AFETR)

Note: This is SATELLITE DEBRIS
aabbcc
Your satellite tracking list
Your tracking list is empty




NASA's NSSDC Master Catalog

Two Line Element Set (TLE):
1 31138U 79101H   22139.01278949 -.00000072  00000-0  00000+0 0  9990
2 31138   7.2093 207.6768 4937213 237.3750 104.8512  1.83062575103429
Source of the keplerian elements: AFSPC